User: anonymous   Login
Location: Calvatone
(45.1167°N, 10.4333°E)
Time: 17:34:07
(UTC+00:00)
Language:

NOAA 17 DEB - Orbit

View from above orbital plane
View from above orbital plane
View from above satellite
View from above satellite

Ground track
Ground track

The orbit data is extracted from the following two-line orbital elements,

1 49479U 02032DH  24146.22662893  .00002038  00000-0  58727-3 0  9990
2 49479  98.8625 146.6048 0066427 119.3319 241.4528 14.44578538156056
Epoch (UTC): 25 May 2024 05:26:20
Eccentricity: 0.0066427
inclination: 98.8625°
perigee height: 696 km
apogee height: 791 km
right ascension of ascending node: 146.6048°
argument of perigee: 119.3319°
revolutions per day: 14.44578538
mean anomaly at epoch: 241.4528°
orbit number at epoch: 15605

The dashed part of the orbit path shows where the satellite is in the earth's shadow,  

DLR